| time (UTC) | temp C | wind direction | speed KPH | gust KPH | rain 1hr cm | rain 24hr cm | rain mn cm | humidity % | barometer mb |
| 20260506051028 | -1 | 355 | 0.0 | 1.6 | 0.00 | 0.64 | 0.58 | 97 | 1012.8 |
| 20260506050505 | -1 | 15 | 0.0 | 6.4 | 0.00 | 0.64 | 0.58 | 97 | 1012.7 |
| 20260506045005 | -1 | 30 | 0.0 | 4.8 | 0.00 | 0.71 | 0.58 | 97 | 1012.6 |
| 20260506044503 | -1 | 350 | 0.0 | 6.4 | 0.00 | 0.71 | 0.58 | 97 | 1012.2 |
| 20260506044005 | -1 | 350 | 0.0 | 3.2 | 0.00 | 0.71 | 0.58 | 97 | 1012.6 |
| 20260506043505 | -1 | 326 | 0.0 | 3.2 | 0.00 | 0.71 | 0.58 | 97 | 1012.7 |
| 20260506043006 | -1 | 342 | 1.6 | 3.2 | 0.00 | 0.71 | 0.58 | 96 | 1012.7 |
| 20260506043003 | -1 | 342 | 0.0 | 3.2 | 0.00 | 0.71 | 0.58 | 96 | 1012.3 |
| 20260506042505 | -1 | 342 | 0.0 | 3.2 | 0.00 | 0.71 | 0.58 | 96 | 1012.7 |
| 20260506042003 | -1 | 342 | 1.6 | 3.2 | 0.00 | 0.71 | 0.58 | 97 | 1012.7 |
| 20260506041509 | -1 | 337 | 0.0 | 3.2 | 0.00 | 0.71 | 0.58 | 97 | 1012.1 |
| 20260506041505 | -1 | 337 | 1.6 | 3.2 | 0.00 | 0.71 | 0.58 | 97 | 1012.7 |
| 20260506040505 | -1 | 5 | 0.0 | 4.8 | 0.00 | 0.71 | 0.58 | 97 | 1012.5 |
| 20260506040006 | -1 | 28 | 0.0 | 6.4 | 0.00 | 0.71 | 0.58 | 96 | 1011.7 |
| 20260506035504 | -1 | 32 | 1.6 | 6.4 | 0.00 | 0.71 | 0.58 | 96 | 1012.5 |
| 20260506035005 | -1 | 5 | 1.6 | 4.8 | 0.00 | 0.71 | 0.58 | 96 | 1012.5 |
| 20260506034505 | -1 | 338 | 0.0 | 3.2 | 0.00 | 0.71 | 0.58 | 96 | 1012.5 |
| 20260506034502 | -1 | 338 | 0.0 | 3.2 | 0.00 | 0.71 | 0.58 | 96 | 1011.7 |
| 20260506034005 | -1 | 350 | 1.6 | 3.2 | 0.00 | 0.71 | 0.58 | 97 | 1012.3 |
| 20260506033505 | -1 | 19 | 1.6 | 6.4 | 0.00 | 0.71 | 0.58 | 96 | 1012.3 |
| 20260506033006 | -1 | 19 | 3.2 | 6.4 | 0.00 | 0.71 | 0.58 | 96 | 1012.3 |
| 20260506033003 | -1 | 19 | 3.2 | 6.4 | 0.00 | 0.71 | 0.58 | 96 | 1011.3 |
| 20260506032006 | -1 | 13 | 1.6 | 6.4 | 0.00 | 0.71 | 0.58 | 97 | 1012.1 |
| 20260506031504 | -1 | 15 | 3.2 | 6.4 | 0.00 | 0.71 | 0.58 | 96 | 1012.0 |
| 20260506031006 | -1 | 360 | 1.6 | 8.0 | 0.00 | 0.71 | 0.58 | 96 | 1011.9 |
| 20260506030505 | -1 | 13 | 4.8 | 8.0 | 0.00 | 0.71 | 0.58 | 96 | 1011.8 |
| 20260506030007 | -1 | 40 | 0.0 | 4.8 | 0.00 | 0.71 | 0.58 | 96 | 1010.4 |
| 20260506025505 | -1 | 25 | 3.2 | 4.8 | 0.00 | 0.71 | 0.58 | 96 | 1011.6 |
| 20260506024507 | -1 | 13 | 1.6 | 8.0 | 0.00 | 0.71 | 0.58 | 96 | 1009.9 |
| 20260506024505 | -1 | 13 | 1.6 | 8.0 | 0.00 | 0.71 | 0.58 | 96 | 1011.2 |
| 20260506024005 | -1 | 13 | 0.0 | 8.0 | 0.00 | 0.71 | 0.58 | 96 | 1011.1 |
| 20260506023504 | -1 | 13 | 1.6 | 8.0 | 0.00 | 0.71 | 0.58 | 96 | 1011.1 |
| 20260506023006 | -1 | 333 | 1.6 | 6.4 | 0.00 | 0.71 | 0.58 | 96 | 1011.1 |
| 20260506023003 | -1 | 333 | 0.0 | 6.4 | 0.00 | 0.71 | 0.58 | 96 | 1009.6 |
| 20260506022504 | -1 | 20 | 4.8 | 6.4 | 0.00 | 0.71 | 0.58 | 96 | 1011.1 |
| 20260506022006 | -1 | 22 | 0.0 | 6.4 | 0.00 | 0.71 | 0.58 | 96 | 1011.0 |
| 20260506021504 | -1 | 22 | 1.6 | 6.4 | 0.00 | 0.71 | 0.58 | 96 | 1010.9 |
| 20260506021502 | -1 | 22 | 1.6 | 6.4 | 0.00 | 0.71 | 0.58 | 96 | 1009.2 |
| 20260506021005 | 0 | 22 | 1.6 | 6.4 | 0.00 | 0.71 | 0.58 | 96 | 1010.7 |
| 20260506020504 | 0 | 34 | 3.2 | 4.8 | 0.00 | 0.71 | 0.58 | 96 | 1010.6 |
| 20260506020006 | 0 | 10 | 1.6 | 6.4 | 0.00 | 0.71 | 0.58 | 96 | 1010.6 |
| 20260506015006 | 0 | 19 | 4.8 | 12.9 | 0.00 | 0.71 | 0.58 | 96 | 1010.4 |
| 20260506014504 | 0 | 23 | 6.4 | 8.0 | 0.00 | 0.71 | 0.58 | 96 | 1010.2 |
| 20260506014502 | 0 | 23 | 4.8 | 8.0 | 0.00 | 0.71 | 0.58 | 96 | 1008.3 |
| 20260506013002 | 0 | 22 | 1.6 | 8.0 | 0.00 | 0.71 | 0.58 | 96 | 1008.3 |
| 20260506012504 | 0 | 23 | 4.8 | 8.0 | 0.00 | 0.71 | 0.58 | 96 | 1010.3 |
| 20260506012006 | 0 | 24 | 4.8 | 8.0 | 0.00 | 0.71 | 0.58 | 96 | 1010.2 |
| 20260506011504 | 0 | 20 | 4.8 | 8.0 | 0.00 | 0.71 | 0.58 | 96 | 1010.0 |
| 20260506010505 | 0 | 33 | 6.4 | 8.0 | 0.00 | 0.71 | 0.58 | 96 | 1010.0 |
| 20260506010006 | 0 | 32 | 3.2 | 6.4 | 0.00 | 0.71 | 0.58 | 96 | 1010.0 |
| 20260506010003 | 0 | 32 | 1.6 | 6.4 | 0.00 | 0.71 | 0.58 | 96 | 1007.7 |
| 20260506005504 | 0 | 37 | 3.2 | 6.4 | 0.03 | 0.71 | 0.58 | 96 | 1010.1 |
| 20260506005005 | 0 | 51 | 1.6 | 6.4 | 0.03 | 0.71 | 0.58 | 96 | 1010.1 |
| 20260506004504 | 0 | 51 | 3.2 | 6.4 | 0.05 | 0.71 | 0.58 | 96 | 1009.9 |
| 20260506004005 | 0 | 59 | 4.8 | 6.4 | 0.05 | 0.71 | 0.58 | 96 | 1009.9 |
| 20260506003504 | 0 | 77 | 4.8 | 6.4 | 0.08 | 0.71 | 0.58 | 96 | 1009.9 |
| 20260506003007 | 0 | 109 | 3.2 | 9.7 | 0.08 | 0.71 | 0.58 | 95 | 1007.3 |
| 20260506003005 | 0 | 109 | 3.2 | 9.7 | 0.08 | 0.71 | 0.58 | 95 | 1009.9 |
| 20260506001504 | 0 | 88 | 9.7 | 14.5 | 0.10 | 0.71 | 0.58 | 95 | 1009.7 |
| 20260506001502 | 0 | 88 | 9.7 | 14.5 | 0.10 | 0.71 | 0.58 | 95 | 1006.9 |
| 20260506001015 | 0 | 93 | 9.7 | 14.5 | 0.10 | 0.71 | 0.58 | 94 | 1009.7 |
| 20260506000505 | 0 | 90 | 9.7 | 12.9 | 0.13 | 0.71 | 0.58 | 94 | 1009.9 |
| 20260506000006 | 1 | 86 | 6.4 | 11.3 | 0.13 | 0.71 | 0.58 | 95 | 1009.9 |
| 20260506000002 | 1 | 86 | 4.8 | 11.3 | 0.13 | 0.71 | 0.58 | 95 | 1007.0 |
| 20260505235504 | 1 | 87 | 6.4 | 14.5 | 0.10 | 0.69 | 0.56 | 95 | 1009.8 |
| 20260505235002 | 1 | 105 | 8.0 | 14.5 | 0.10 | 0.69 | 0.56 | 95 | 1009.6 |
| 20260505234503 | 1 | 109 | 8.0 | 12.9 | 0.08 | 0.66 | 0.53 | 95 | 1006.6 |
| 20260505234005 | 1 | 92 | 6.4 | 12.9 | 0.08 | 0.66 | 0.53 | 95 | 1009.7 |
| 20260505233505 | 1 | 117 | 9.7 | 12.9 | 0.05 | 0.64 | 0.51 | 95 | 1009.7 |
| 20260505233006 | 1 | 109 | 8.0 | 14.5 | 0.05 | 0.64 | 0.51 | 95 | 1009.7 |
| 20260505233002 | 1 | 109 | 8.0 | 14.5 | 0.05 | 0.64 | 0.51 | 95 | 1006.6 |
| 20260505232504 | 1 | 115 | 9.7 | 14.5 | 0.05 | 0.64 | 0.51 | 95 | 1009.5 |
| 20260505232005 | 1 | 105 | 6.4 | 16.1 | 0.03 | 0.61 | 0.48 | 95 | 1009.4 |
| 20260505231504 | 1 | 112 | 9.7 | 17.7 | 0.03 | 0.61 | 0.48 | 95 | 1009.3 |
| 20260505231006 | 1 | 101 | 14.5 | 17.7 | 0.03 | 0.61 | 0.48 | 95 | 1009.3 |
| 20260505230504 | 1 | 105 | 12.9 | 16.1 | 0.00 | 0.58 | 0.46 | 95 | 1009.3 |
| 20260505230007 | 1 | 111 | 11.3 | 17.7 | 0.00 | 0.58 | 0.46 | 94 | 1005.7 |
| 20260505225505 | 1 | 109 | 12.9 | 17.7 | 0.00 | 0.58 | 0.46 | 94 | 1009.1 |
| 20260505225005 | 1 | 128 | 9.7 | 16.1 | 0.00 | 0.58 | 0.46 | 95 | 1009.0 |
| 20260505224504 | 1 | 123 | 11.3 | 16.1 | 0.00 | 0.58 | 0.46 | 95 | 1009.0 |
| 20260505223459 | 2 | 124 | 12.9 | 20.9 | 0.03 | 0.58 | 0.46 | 94 | 1008.8 |
| 20260505223059 | 2 | 115 | 12.9 | 20.9 | 0.03 | 0.58 | 0.46 | 94 | 1005.0 |
| 20260505223006 | 2 | 106 | 14.5 | 20.9 | 0.03 | 0.58 | 0.46 | 94 | 1008.7 |
| 20260505223003 | 2 | 106 | 12.9 | 20.9 | 0.03 | 0.58 | 0.46 | 94 | 1005.0 |
| 20260505222504 | 2 | 105 | 11.3 | 19.3 | 0.03 | 0.58 | 0.46 | 94 | 1008.7 |
| 20260505222005 | 2 | 103 | 9.7 | 19.3 | 0.03 | 0.58 | 0.46 | 94 | 1008.7 |
| 20260505221503 | 2 | 103 | 12.9 | 19.3 | 0.03 | 0.58 | 0.46 | 94 | 1005.0 |
| 20260505221005 | 2 | 116 | 14.5 | 17.7 | 0.03 | 0.58 | 0.46 | 94 | 1008.9 |
| 20260505220505 | 2 | 109 | 12.9 | 19.3 | 0.03 | 0.58 | 0.46 | 94 | 1008.9 |
| 20260505220004 | 2 | 116 | 12.9 | 20.9 | 0.03 | 0.58 | 0.46 | 94 | 1005.0 |
| 20260505215006 | 2 | 121 | 14.5 | 19.3 | 0.03 | 0.58 | 0.46 | 94 | 1009.1 |
| 20260505214504 | 2 | 136 | 11.3 | 17.7 | 0.03 | 0.58 | 0.46 | 94 | 1009.1 |
| 20260505214502 | 2 | 136 | 11.3 | 17.7 | 0.03 | 0.58 | 0.46 | 94 | 1005.0 |
| 20260505214005 | 2 | 129 | 11.3 | 17.7 | 0.00 | 0.56 | 0.43 | 95 | 1009.1 |
| 20260505213005 | 2 | 94 | 14.5 | 19.3 | 0.00 | 0.56 | 0.43 | 95 | 1009.2 |
| 20260505213002 | 2 | 94 | 12.9 | 19.3 | 0.00 | 0.56 | 0.43 | 95 | 1005.1 |
| 20260505212504 | 1 | 103 | 12.9 | 17.7 | 0.00 | 0.56 | 0.43 | 94 | 1009.3 |
| 20260505212005 | 1 | 101 | 14.5 | 17.7 | 0.00 | 0.56 | 0.43 | 94 | 1009.4 |
| 20260505211504 | 2 | 101 | 12.9 | 19.3 | 0.00 | 0.56 | 0.43 | 95 | 1009.4 |
| 20260505211005 | 2 | 103 | 12.9 | 19.3 | 0.00 | 0.56 | 0.43 | 95 | 1009.5 |
| 20260505210505 | 2 | 98 | 11.3 | 17.7 | 0.03 | 0.56 | 0.43 | 95 | 1009.5 |
| 20260505210003 | 2 | 101 | 9.7 | 17.7 | 0.03 | 0.56 | 0.43 | 95 | 1005.1 |
| 20260505205005 | 1 | 104 | 12.9 | 20.9 | 0.03 | 0.56 | 0.43 | 95 | 1009.8 |
| 20260505204504 | 1 | 79 | 12.9 | 20.9 | 0.03 | 0.56 | 0.43 | 95 | 1009.9 |
| 20260505204502 | 1 | 79 | 11.3 | 20.9 | 0.03 | 0.56 | 0.43 | 95 | 1005.4 |
| 20260505204005 | 1 | 92 | 12.9 | 20.9 | 0.03 | 0.56 | 0.43 | 95 | 1009.9 |
| 20260505203504 | 1 | 84 | 11.3 | 19.3 | 0.03 | 0.56 | 0.43 | 95 | 1010.0 |
| 20260505203005 | 1 | 107 | 9.7 | 20.9 | 0.05 | 0.56 | 0.43 | 95 | 1010.0 |
| 20260505203003 | 1 | 107 | 9.7 | 20.9 | 0.05 | 0.56 | 0.43 | 95 | 1005.5 |
| 20260505202005 | 2 | 98 | 9.7 | 19.3 | 0.05 | 0.56 | 0.43 | 95 | 1010.0 |
| 20260505201507 | 1 | 61 | 12.9 | 19.3 | 0.05 | 0.56 | 0.43 | 95 | 1005.4 |
| 20260505201505 | 1 | 61 | 12.9 | 19.3 | 0.05 | 0.56 | 0.43 | 95 | 1010.1 |
| 20260505201005 | 1 | 104 | 9.7 | 20.9 | 0.05 | 0.56 | 0.43 | 95 | 1010.1 |
| 20260505200505 | 1 | 101 | 12.9 | 20.9 | 0.03 | 0.53 | 0.41 | 94 | 1010.2 |
| 20260505200006 | 1 | 104 | 14.5 | 20.9 | 0.03 | 0.53 | 0.41 | 95 | 1010.2 |
| 20260505200003 | 1 | 104 | 12.9 | 20.9 | 0.03 | 0.53 | 0.41 | 95 | 1005.4 |
| 20260505195504 | 1 | 84 | 12.9 | 17.7 | 0.03 | 0.53 | 0.41 | 94 | 1010.3 |
| 20260505195007 | 1 | 71 | 12.9 | 19.3 | 0.03 | 0.53 | 0.41 | 94 | 1010.3 |
| 20260505194504 | 1 | 88 | 12.9 | 19.3 | 0.03 | 0.53 | 0.41 | 94 | 1010.4 |
| 20260505194502 | 1 | 88 | 12.9 | 19.3 | 0.03 | 0.53 | 0.41 | 94 | 1005.4 |
| 20260505193504 | 1 | 54 | 11.3 | 16.1 | 0.05 | 0.53 | 0.41 | 94 | 1010.4 |
| 20260505193006 | 1 | 81 | 9.7 | 16.1 | 0.03 | 0.51 | 0.38 | 94 | 1010.4 |
| 20260505193002 | 1 | 81 | 9.7 | 16.1 | 0.03 | 0.51 | 0.38 | 94 | 1005.4 |
| 20260505192005 | 1 | 79 | 8.0 | 16.1 | 0.03 | 0.51 | 0.38 | 94 | 1010.6 |
| 20260505191504 | 1 | 86 | 9.7 | 19.3 | 0.05 | 0.51 | 0.38 | 94 | 1010.5 |
| 20260505191502 | 1 | 86 | 9.7 | 19.3 | 0.05 | 0.51 | 0.38 | 94 | 1005.3 |
| 20260505191005 | 1 | 82 | 11.3 | 19.3 | 0.05 | 0.51 | 0.38 | 94 | 1010.6 |
| 20260505190006 | 1 | 70 | 9.7 | 16.1 | 0.05 | 0.51 | 0.38 | 95 | 1010.7 |
| 20260505185004 | 1 | 65 | 9.7 | 19.3 | 0.05 | 0.51 | 0.38 | 95 | 1010.8 |
| 20260505184504 | 1 | 113 | 9.7 | 16.1 | 0.05 | 0.51 | 0.38 | 95 | 1010.7 |
| 20260505184005 | 1 | 73 | 9.7 | 16.1 | 0.05 | 0.51 | 0.38 | 95 | 1010.8 |
| 20260505183504 | 1 | 76 | 9.7 | 17.7 | 0.03 | 0.48 | 0.36 | 95 | 1010.9 |
| 20260505183005 | 1 | 68 | 11.3 | 16.1 | 0.03 | 0.48 | 0.36 | 95 | 1011.0 |
| 20260505183003 | 1 | 68 | 11.3 | 16.1 | 0.03 | 0.48 | 0.36 | 95 | 1005.3 |
| 20260505182504 | 1 | 80 | 11.3 | 16.1 | 0.05 | 0.48 | 0.36 | 95 | 1011.1 |
| 20260505182006 | 1 | 98 | 11.3 | 16.1 | 0.05 | 0.48 | 0.36 | 95 | 1011.2 |
| 20260505181505 | 1 | 101 | 8.0 | 16.1 | 0.03 | 0.46 | 0.33 | 95 | 1005.4 |
| 20260505181006 | 1 | 84 | 8.0 | 14.5 | 0.03 | 0.46 | 0.33 | 96 | 1011.3 |
| 20260505180503 | 1 | 71 | 9.7 | 17.7 | 0.03 | 0.46 | 0.33 | 95 | 1011.3 |
| 20260505180006 | 1 | 74 | 11.3 | 17.7 | 0.03 | 0.46 | 0.33 | 94 | 1011.3 |
| 20260505180002 | 1 | 74 | 9.7 | 17.7 | 0.03 | 0.46 | 0.33 | 94 | 1005.1 |
| 20260505175004 | 1 | 72 | 9.7 | 17.7 | 0.03 | 0.46 | 0.33 | 95 | 1011.4 |
| 20260505174505 | 1 | 59 | 9.7 | 16.1 | 0.05 | 0.46 | 0.33 | 95 | 1011.4 |
| 20260505174005 | 1 | 102 | 12.9 | 16.1 | 0.05 | 0.46 | 0.33 | 95 | 1011.4 |
| 20260505173504 | 1 | 98 | 11.3 | 16.1 | 0.05 | 0.46 | 0.33 | 95 | 1011.4 |
| 20260505173005 | 0 | 75 | 11.3 | 16.1 | 0.05 | 0.46 | 0.33 | 95 | 1011.5 |
| 20260505173002 | 0 | 75 | 9.7 | 16.1 | 0.05 | 0.46 | 0.33 | 95 | 1005.2 |
| 20260505172504 | 1 | 94 | 9.7 | 14.5 | 0.03 | 0.43 | 0.30 | 95 | 1011.7 |
| 20260505172005 | 0 | 86 | 11.3 | 16.1 | 0.03 | 0.43 | 0.30 | 95 | 1011.7 |
| 20260505171504 | 0 | 94 | 12.9 | 16.1 | 0.03 | 0.43 | 0.30 | 95 | 1011.7 |
| 20260505171502 | 0 | 94 | 12.9 | 16.1 | 0.03 | 0.43 | 0.30 | 95 | 1005.3 |
| 20260505171005 | 0 | 71 | 11.3 | 14.5 | 0.05 | 0.43 | 0.30 | 96 | 1011.7 |
| 20260505170504 | 0 | 84 | 11.3 | 19.3 | 0.05 | 0.43 | 0.30 | 95 | 1011.8 |
| 20260505170002 | 0 | 72 | 9.7 | 19.3 | 0.05 | 0.43 | 0.30 | 95 | 1005.3 |
| 20260505165509 | 0 | 74 | 11.3 | 16.1 | 0.05 | 0.43 | 0.30 | 96 | 1011.8 |
| 20260505165026 | 0 | 80 | 12.9 | 16.1 | 0.05 | 0.43 | 0.30 | 96 | 1011.8 |
| 20260505164602 | 0 | 55 | 8.0 | 16.1 | 0.03 | 0.41 | 0.28 | 96 | 1005.2 |
| 20260505164005 | 0 | 63 | 9.7 | 16.1 | 0.03 | 0.41 | 0.28 | 96 | 1011.9 |
| 20260505163510 | 0 | 55 | 9.7 | 16.1 | 0.05 | 0.41 | 0.28 | 96 | 1012.0 |
| 20260505163007 | 0 | 68 | 8.0 | 12.9 | 0.05 | 0.41 | 0.28 | 96 | 1012.1 |
| 20260505163002 | 0 | 68 | 6.4 | 12.9 | 0.05 | 0.41 | 0.28 | 96 | 1005.4 |
| 20260505162019 | 0 | 48 | 9.7 | 16.1 | 0.05 | 0.41 | 0.28 | 96 | 1012.0 |
| 20260505161505 | 0 | 41 | 9.7 | 14.5 | 0.05 | 0.41 | 0.28 | 96 | 1011.9 |
| 20260505161503 | 0 | 41 | 8.0 | 14.5 | 0.05 | 0.41 | 0.28 | 96 | 1005.1 |
| 20260505161005 | 0 | 44 | 8.0 | 16.1 | 0.03 | 0.38 | 0.25 | 96 | 1011.9 |
| 20260505160504 | 0 | 35 | 8.0 | 14.5 | 0.03 | 0.38 | 0.25 | 96 | 1011.9 |
| 20260505153007 | 0 | 48 | 9.7 | 17.7 | 0.03 | 0.36 | 0.23 | 96 | 1004.9 |
| 20260505152505 | 0 | 53 | 11.3 | 17.7 | 0.03 | 0.36 | 0.23 | 96 | 1011.9 |
| 20260505152005 | 0 | 46 | 12.9 | 19.3 | 0.03 | 0.36 | 0.23 | 96 | 1011.9 |
| 20260505151505 | 0 | 19 | 11.3 | 19.3 | 0.03 | 0.36 | 0.23 | 96 | 1011.9 |
| 20260505151502 | 0 | 19 | 9.7 | 19.3 | 0.03 | 0.36 | 0.23 | 96 | 1004.7 |
| 20260505151005 | 0 | 30 | 8.0 | 17.7 | 0.03 | 0.36 | 0.23 | 96 | 1011.9 |
| 20260505150504 | 0 | 37 | 12.9 | 17.7 | 0.03 | 0.36 | 0.23 | 96 | 1011.7 |
| 20260505140505 | 0 | 24 | 20.9 | 29.0 | 0.03 | 0.33 | 0.20 | 95 | 1011.6 |
| 20260505125005 | 3 | 69 | 9.7 | 16.1 | 0.10 | 0.30 | 0.18 | 94 | 1009.9 |
| 20260505124505 | 3 | 36 | 8.0 | 14.5 | 0.10 | 0.28 | 0.15 | 94 | 1001.4 |
| 20260505124005 | 3 | 80 | 8.0 | 17.7 | 0.10 | 0.28 | 0.15 | 94 | 1009.8 |
| 20260505123504 | 3 | 108 | 11.3 | 17.7 | 0.10 | 0.28 | 0.15 | 94 | 1009.7 |
| 20260505123006 | 3 | 110 | 11.3 | 19.3 | 0.10 | 0.28 | 0.15 | 94 | 1001.3 |
| 20260505122504 | 3 | 105 | 14.5 | 19.3 | 0.10 | 0.28 | 0.15 | 94 | 1009.7 |
| 20260505122005 | 3 | 106 | 11.3 | 16.1 | 0.10 | 0.28 | 0.15 | 94 | 1009.8 |
| 20260505121505 | 3 | 117 | 9.7 | 17.7 | 0.08 | 0.25 | 0.13 | 94 | 1009.9 |
| 20260505121502 | 3 | 117 | 9.7 | 17.7 | 0.08 | 0.25 | 0.13 | 94 | 1001.5 |
| 20260505121005 | 3 | 119 | 14.5 | 19.3 | 0.08 | 0.25 | 0.13 | 94 | 1009.8 |
| 20260505120505 | 3 | 139 | 14.5 | 19.3 | 0.08 | 0.25 | 0.13 | 94 | 1009.9 |
| 20260505120007 | 3 | 125 | 11.3 | 16.1 | 0.05 | 0.23 | 0.10 | 94 | 1009.8 |
| 20260505115503 | 3 | 117 | 11.3 | 19.3 | 0.03 | 0.20 | 0.08 | 94 | 1009.7 |
| 20260505115005 | 3 | 119 | 11.3 | 17.7 | 0.03 | 0.20 | 0.08 | 94 | 1009.6 |
| 20260505114503 | 3 | 105 | 11.3 | 17.7 | 0.00 | 0.18 | 0.05 | 94 | 1001.3 |
| 20260505114005 | 3 | 111 | 11.3 | 19.3 | 0.00 | 0.18 | 0.05 | 94 | 1009.7 |
| 20260505113504 | 3 | 130 | 12.9 | 19.3 | 0.00 | 0.18 | 0.05 | 93 | 1009.7 |
| 20260505113005 | 3 | 117 | 12.9 | 16.1 | 0.00 | 0.18 | 0.05 | 93 | 1009.7 |
| 20260505113003 | 3 | 117 | 11.3 | 16.1 | 0.00 | 0.18 | 0.05 | 93 | 1001.2 |
| 20260505112005 | 3 | 99 | 9.7 | 14.5 | 0.00 | 0.18 | 0.05 | 93 | 1009.8 |
| 20260505111507 | 3 | 98 | 8.0 | 14.5 | 0.00 | 0.18 | 0.05 | 93 | 1001.4 |
| 20260505111504 | 3 | 98 | 9.7 | 14.5 | 0.00 | 0.18 | 0.05 | 93 | 1009.8 |
| 20260505111004 | 3 | 106 | 8.0 | 16.1 | 0.00 | 0.18 | 0.05 | 93 | 1009.8 |
| 20260505110504 | 3 | 88 | 9.7 | 14.5 | 0.00 | 0.18 | 0.05 | 92 | 1009.7 |
| 20260505101507 | 4 | 108 | 1.6 | 4.8 | 0.00 | 0.18 | 0.05 | 93 | 1000.9 |
| 20260505101005 | 4 | 108 | 3.2 | 9.7 | 0.00 | 0.18 | 0.05 | 93 | 1009.6 |
| 20260505100504 | 3 | 96 | 3.2 | 9.7 | 0.00 | 0.18 | 0.05 | 93 | 1008.9 |
| 20260505100007 | 3 | 84 | 4.8 | 8.0 | 0.00 | 0.18 | 0.05 | 91 | 999.8 |
| 20260505095005 | 4 | 127 | 1.6 | 4.8 | 0.00 | 0.18 | 0.05 | 91 | 1008.9 |
| 20260505094505 | 4 | 127 | 3.2 | 4.8 | 0.00 | 0.18 | 0.05 | 91 | 1009.1 |
| 20260505094005 | 4 | 127 | 3.2 | 4.8 | 0.00 | 0.18 | 0.05 | 91 | 1008.9 |
| 20260505093505 | 4 | 127 | 1.6 | 3.2 | 0.03 | 0.18 | 0.05 | 90 | 1009.1 |
| 20260505093005 | 4 | 127 | 3.2 | 3.2 | 0.03 | 0.18 | 0.05 | 89 | 1009.1 |
| 20260505093002 | 4 | 127 | 1.6 | 3.2 | 0.03 | 0.18 | 0.05 | 89 | 1000.3 |
| 20260505092504 | 5 | 127 | 1.6 | 6.4 | 0.03 | 0.18 | 0.05 | 89 | 1009.2 |
| 20260505091505 | 5 | 127 | 3.2 | 6.4 | 0.03 | 0.18 | 0.05 | 90 | 1009.2 |
| 20260505091502 | 5 | 127 | 1.6 | 6.4 | 0.03 | 0.18 | 0.05 | 90 | 1000.3 |
| 20260505091004 | 5 | 127 | 4.8 | 6.4 | 0.03 | 0.18 | 0.05 | 90 | 1009.3 |
| 20260505090505 | 5 | 127 | 1.6 | 6.4 | 0.03 | 0.18 | 0.05 | 89 | 1009.3 |
| 20260505090007 | 5 | 127 | 4.8 | 8.0 | 0.03 | 0.18 | 0.05 | 89 | 1009.3 |
| 20260505090003 | 5 | 127 | 3.2 | 8.0 | 0.03 | 0.18 | 0.05 | 89 | 1000.3 |
| 20260505085504 | 5 | 127 | 4.8 | 6.4 | 0.03 | 0.18 | 0.05 | 89 | 1009.3 |
| 20260505084504 | 5 | 127 | 1.6 | 8.0 | 0.03 | 0.18 | 0.05 | 90 | 1009.4 |
| 20260505084501 | 5 | 127 | 1.6 | 8.0 | 0.03 | 0.18 | 0.05 | 90 | 1000.4 |
| 20260505084005 | 5 | 127 | 4.8 | 8.0 | 0.03 | 0.18 | 0.05 | 90 | 1009.3 |
| 20260505083504 | 5 | 127 | 4.8 | 6.4 | 0.00 | 0.15 | 0.03 | 90 | 1009.4 |
| 20260505083005 | 5 | 127 | 0.0 | 3.2 | 0.00 | 0.15 | 0.03 | 90 | 1009.8 |
| 20260505082503 | 5 | 127 | 0.0 | 4.8 | 0.00 | 0.15 | 0.03 | 90 | 1009.9 |
| 20260505082004 | 5 | 127 | 1.6 | 6.4 | 0.00 | 0.15 | 0.03 | 90 | 1009.9 |
| 20260505081502 | 5 | 82 | 1.6 | 4.8 | 0.00 | 0.15 | 0.03 | 91 | 1000.6 |
| 20260505081005 | 5 | 82 | 1.6 | 4.8 | 0.00 | 0.15 | 0.03 | 91 | 1009.8 |
| 20260505080504 | 5 | 82 | 0.0 | 4.8 | 0.00 | 0.15 | 0.03 | 91 | 1010.0 |
| 20260505080005 | 5 | 82 | 3.2 | 9.7 | 0.00 | 0.15 | 0.03 | 90 | 1009.8 |
| 20260505080002 | 5 | 82 | 1.6 | 9.7 | 0.00 | 0.15 | 0.03 | 90 | 1000.8 |
| 20260505075504 | 5 | 82 | 4.8 | 9.7 | 0.00 | 0.15 | 0.03 | 91 | 1009.8 |
| 20260505075006 | 5 | 82 | 3.2 | 11.3 | 0.00 | 0.15 | 0.03 | 90 | 1009.8 |
| 20260505074503 | 6 | 123 | 3.2 | 11.3 | 0.00 | 0.15 | 0.03 | 91 | 1000.9 |
| 20260505074004 | 6 | 130 | 6.4 | 11.3 | 0.00 | 0.15 | 0.03 | 91 | 1009.8 |
| 20260505073505 | 6 | 185 | 6.4 | 11.3 | 0.00 | 0.15 | 0.03 | 91 | 1010.2 |
| 20260505073007 | 6 | 168 | 4.8 | 9.7 | 0.00 | 0.15 | 0.03 | 91 | 1001.3 |
| 20260505073005 | 6 | 168 | 6.4 | 9.7 | 0.00 | 0.15 | 0.03 | 91 | 1010.3 |
| 20260505072503 | 6 | 11 | 3.2 | 4.8 | 0.00 | 0.15 | 0.03 | 91 | 1010.5 |
| 20260505072000 | 6 | 11 | 1.6 | 4.8 | 0.00 | 0.15 | 0.03 | 91 | 1010.5 |
| 20260505071501 | 6 | 11 | 1.6 | 4.8 | 0.00 | 0.15 | 0.03 | 90 | 1001.6 |
| 20260505071458 | 6 | 11 | 1.6 | 4.8 | 0.00 | 0.15 | 0.03 | 90 | 1010.6 |
| 20260505071005 | 6 | 11 | 1.6 | 4.8 | 0.00 | 0.15 | 0.03 | 90 | 1010.6 |
| 20260505070504 | 6 | 11 | 1.6 | 4.8 | 0.03 | 0.15 | 0.03 | 91 | 1010.5 |
| 20260505070006 | 6 | 11 | 0.0 | 3.2 | 0.03 | 0.15 | 0.03 | 90 | 1010.6 |
| 20260505070003 | 6 | 11 | 0.0 | 3.2 | 0.03 | 0.15 | 0.03 | 90 | 1001.6 |
| 20260505065504 | 6 | 11 | 0.0 | 1.6 | 0.03 | 0.15 | 0.03 | 91 | 1010.6 |
| 20260505065005 | 6 | 11 | 0.0 | 1.6 | 0.03 | 0.15 | 0.03 | 91 | 1010.7 |
| 20260505064504 | 6 | 11 | 0.0 | 3.2 | 0.03 | 0.15 | 0.03 | 90 | 1010.6 |
| 20260505064502 | 6 | 11 | 0.0 | 3.2 | 0.03 | 0.15 | 0.03 | 90 | 1001.7 |
| 20260505064004 | 6 | 11 | 1.6 | 3.2 | 0.05 | 0.15 | 0.03 | 90 | 1010.7 |
| 20260505063504 | 6 | 11 | 0.0 | 6.4 | 0.05 | 0.15 | 0.03 | 90 | 1010.6 |
| 20260505063002 | 6 | 11 | 3.2 | 6.4 | 0.05 | 0.15 | 0.03 | 90 | 1001.5 |
| 20260505062004 | 6 | 11 | 3.2 | 6.4 | 0.05 | 0.15 | 0.03 | 89 | 1010.5 |
| 20260505061509 | 6 | 11 | 3.2 | 8.0 | 0.05 | 0.15 | 0.03 | 89 | 1001.6 |
| 20260505061505 | 6 | 11 | 3.2 | 8.0 | 0.05 | 0.15 | 0.03 | 89 | 1010.6 |
| 20260505061004 | 6 | 11 | 4.8 | 8.0 | 0.08 | 0.15 | 0.03 | 90 | 1010.7 |
| 20260505060504 | 6 | 11 | 1.6 | 6.4 | 0.05 | 0.13 | 0.00 | 91 | 1010.7 |
| 20260505060010 | 6 | 11 | 1.6 | 9.7 | 0.05 | 0.13 | 0.00 | 91 | 1010.9 |
| 20260505060004 | 6 | 11 | 0.0 | 9.7 | 0.05 | 0.13 | 0.00 | 91 | 1001.9 |